Location: ??????
(38.3184°N, 23.6932°E)
Time: 02:36:35
(UTC+00:00)

SMAP - Pass Details

Date: 16 October 2021
Orbit: 681 x 683 km, 98.1° (Epoch: 04 December)

Event Time Altitude Azimuth Distance (km) Brightness Sun altitude
Rises 16:19:07 0° 181° (S) 3,029 6.5 -7.3°
Reaches altitude 10° 16:21:26 10° 188° (S) 2,119 5.8 -7.7°
Maximum altitude 16:25:52 45° 261° (W) 934 4.4 -8.6°
Drops below altitude 10° 16:30:20 10° 334° (NNW) 2,134 5.9 -9.5°
Sets 16:32:41 0° 341° (NNW) 3,054 6.6 -9.9°
